Weather History for Rice Lake, WI

Change the Weather History Date:

Tuesday, September 10, 2013

  Actual Average Record
Temperature  
Mean Temperature 72 °F -  
Max Temperature 78 °F 71 °F 89 °F (2005)
Min Temperature 65 °F 50 °F 42 °F (2006)
Cooling Degree Days 6    
Growing Degree Days 22 (Base 50)    
Moisture  
Dew Point 63 °F    
Average Humidity 78    
Maximum Humidity 95    
Minimum Humidity 55    
Precipitation  
Precipitation 0.00 in - - ()
Sea Level Pressure  
Sea Level Pressure 29.90 in    
Wind  
Wind Speed 4 mph (WSW)    
Max Wind Speed 9 mph    
Max Gust Speed 16 mph    
Visibility 8 miles    
Events Fog , Rain    
Averages and records for this station are not official NWS values.
T = Trace of Precipitation, MM = Missing Value Source: NWS Daily Summary

Daily Weather History Graph

Daily Weather History Graph

Search for Another Location

Airport:

Trip Planner

Search our weather history database for the weather conditions in past years. The results will help you decide how hot, cold, wet, or windy it might be!

Date:

Astronomy

Sep. 10, 2013 Rise Set
Actual Time 6:39 AM CDT 7:27 PM CDT
Civil Twilight 6:09 AM CDT 7:57 PM CDT
Nautical Twilight 5:34 AM CDT 8:32 PM CDT
Astronomical Twilight 4:56 AM CDT 9:09 PM CDT
Moon 12:23 PM CDT (9/10) 10:12 PM CDT (9/10)
Length of Visible Light 13h 47m
Length of Day
12h 47m
Waxing Crescent, 28% of the Moon is Illuminated
Sep 10
Waxing Crescent
Sep 12
First Quarter
Sep 19
Full
Sep 26
Last Quarter
Oct 4
New

Hourly Weather History & Observations

Time (CDT) Temp. Dew Point Humidity Pressure Visibility Wind Dir Wind Speed Gust Speed Precip Events Conditions
12:15 AM 69.4 °F 67.3 °F 93% 29.76 in 1.2 mi Calm Calm - N/A   Mist
12:35 AM 69.8 °F 67.6 °F 93% 29.76 in 2.0 mi Calm Calm - N/A   Clear
12:55 AM 69.1 °F 67.1 °F 93% 29.77 in 1.5 mi Calm Calm - N/A   Mist
1:15 AM 69.1 °F 67.3 °F 94% 29.78 in 0.2 mi Calm Calm - N/A Fog Fog
1:35 AM 68.0 °F 66.2 °F 94% 29.78 in 0.5 mi Calm Calm - N/A Fog Fog
1:55 AM 67.5 °F 65.8 °F 95% 29.79 in 0.2 mi Calm Calm - N/A Fog Fog
2:15 AM 68.0 °F 66.4 °F 95% 29.78 in 0.5 mi Calm Calm - N/A Fog Fog
2:35 AM 66.6 °F 64.9 °F 95% 29.80 in 0.2 mi Calm Calm - N/A Fog Fog
2:55 AM 66.4 °F 64.8 °F 95% 29.81 in 0.2 mi SSW 4.6 mph - N/A Fog Fog
3:15 AM 68.7 °F 67.1 °F 95% 29.82 in 2.0 mi SW 5.8 mph - N/A   Overcast
3:35 AM 69.8 °F 68.0 °F 94% 29.83 in 3.0 mi WSW 5.8 mph - N/A   Overcast
3:55 AM 70.0 °F 68.4 °F 95% 29.83 in 5.0 mi WSW 5.8 mph - N/A   Mostly Cloudy
4:15 AM 70.2 °F 68.2 °F 93% 29.83 in 5.0 mi WSW 4.6 mph - N/A   Mostly Cloudy
4:35 AM 70.3 °F 67.6 °F 91% 29.83 in 5.0 mi West 5.8 mph - N/A   Overcast
4:55 AM 70.2 °F 67.1 °F 90% 29.83 in 5.0 mi West 4.6 mph - N/A   Overcast
5:15 AM 70.0 °F 67.1 °F 91% 29.84 in 7.0 mi WSW 4.6 mph - N/A   Overcast
5:35 AM 70.0 °F 66.7 °F 89% 29.84 in 7.0 mi WSW 4.6 mph - N/A   Overcast
5:55 AM 69.8 °F 66.6 °F 89% 29.85 in 7.0 mi WSW 5.8 mph - N/A   Mostly Cloudy
6:15 AM 69.3 °F 66.2 °F 90% 29.85 in 10.0 mi WSW 4.6 mph - N/A   Overcast
6:35 AM 69.3 °F 66.0 °F 89% 29.86 in 10.0 mi WSW 4.6 mph - N/A   Overcast
6:55 AM 69.3 °F 65.8 °F 89% 29.87 in 10.0 mi West 9.2 mph - N/A   Overcast
7:15 AM 69.3 °F 65.5 °F 88% 29.88 in 10.0 mi West 4.6 mph - N/A   Overcast
7:35 AM 68.9 °F 65.3 °F 88% 29.89 in 10.0 mi West 4.6 mph - N/A   Mostly Cloudy
7:55 AM 69.3 °F 65.3 °F 87% 29.90 in 10.0 mi West 5.8 mph - N/A   Overcast
8:15 AM 69.8 °F 65.3 °F 86% 29.90 in 10.0 mi West 5.8 mph - N/A   Overcast
8:35 AM 70.7 °F 65.3 °F 83% 29.90 in 10.0 mi WSW 6.9 mph - N/A   Mostly Cloudy
8:55 AM 71.8 °F 63.9 °F 76% 29.89 in 10.0 mi West 5.8 mph - N/A   Scattered Clouds
9:15 AM 73.6 °F 63.9 °F 72% 29.89 in 10.0 mi WSW 5.8 mph - N/A   Mostly Cloudy
9:35 AM 73.4 °F 63.0 °F 70% 29.90 in 10.0 mi WSW 5.8 mph - N/A   Scattered Clouds
9:55 AM 72.9 °F 63.0 °F 71% 29.90 in 10.0 mi WSW 3.5 mph - N/A   Mostly Cloudy
10:15 AM 74.1 °F 63.1 °F 68% 29.91 in 10.0 mi SW 6.9 mph - N/A   Scattered Clouds
10:35 AM 74.3 °F 62.1 °F 65% 29.91 in 10.0 mi SSW 3.5 mph - N/A   Scattered Clouds
10:55 AM 75.9 °F 61.9 °F 62% 29.91 in 10.0 mi SW 6.9 mph - N/A   Scattered Clouds
11:15 AM 77.7 °F 61.3 °F 57% 29.92 in 10.0 mi West 9.2 mph - N/A   Clear
11:35 AM 78.1 °F 60.8 °F 55% 29.92 in 10.0 mi WSW 8.1 mph - N/A   Scattered Clouds
11:55 AM 76.1 °F 60.6 °F 59% 29.93 in 10.0 mi West 9.2 mph - N/A   Scattered Clouds
12:15 PM 75.0 °F 61.0 °F 62% 29.93 in 10.0 mi West 8.1 mph - N/A   Scattered Clouds
12:35 PM 73.2 °F 62.2 °F 68% 29.94 in 10.0 mi West 6.9 mph - N/A Rain Rain
12:55 PM 70.9 °F 63.3 °F 77% 29.95 in 10.0 mi West 5.8 mph - N/A Rain Light Rain
1:15 PM 70.9 °F 64.6 °F 80% 29.94 in 10.0 mi South 4.6 mph - N/A   Overcast
1:35 PM 71.2 °F 63.3 °F 76% 29.94 in 10.0 mi WSW 4.6 mph - N/A   Overcast
1:55 PM 71.8 °F 63.1 °F 74% 29.95 in 10.0 mi WSW 5.8 mph - N/A   Overcast
2:15 PM 73.6 °F 63.5 °F 71% 29.94 in 10.0 mi WSW 6.9 mph - N/A   Mostly Cloudy
2:35 PM 75.6 °F 63.1 °F 65% 29.94 in 10.0 mi SSW 6.9 mph - N/A   Scattered Clouds
2:55 PM 75.7 °F 62.6 °F 64% 29.94 in 10.0 mi SW 6.9 mph - N/A   Clear
3:15 PM 77.2 °F 62.4 °F 60% 29.93 in 10.0 mi SW 6.9 mph - N/A   Clear
3:35 PM 76.3 °F 62.4 °F 62% 29.92 in 10.0 mi SSW 8.1 mph - N/A   Clear
3:55 PM 76.5 °F 62.6 °F 62% 29.93 in 10.0 mi SSW 8.1 mph - N/A   Clear
4:15 PM 75.2 °F 61.9 °F 63% 29.93 in 10.0 mi SSW 8.1 mph - N/A   Mostly Cloudy
4:35 PM 74.7 °F 62.4 °F 66% 29.93 in 10.0 mi SSW 6.9 mph - N/A   Mostly Cloudy
4:55 PM 73.8 °F 62.6 °F 68% 29.92 in 10.0 mi SSW 8.1 mph - N/A   Mostly Cloudy
5:15 PM 73.4 °F 63.0 °F 70% 29.93 in 10.0 mi SSW 9.2 mph - N/A   Mostly Cloudy
5:35 PM 75.4 °F 63.5 °F 66% 29.93 in 10.0 mi SSW 8.1 mph - N/A   Scattered Clouds
5:55 PM 75.9 °F 62.4 °F 63% 29.93 in 10.0 mi SSW 8.1 mph 16.1 mph N/A   Clear
6:15 PM 75.9 °F 62.2 °F 62% 29.93 in 10.0 mi SSW 9.2 mph - N/A   Clear
6:35 PM 74.3 °F 62.4 °F 66% 29.93 in 10.0 mi SSW 5.8 mph - N/A   Clear
6:55 PM 73.9 °F 62.1 °F 66% 29.93 in 10.0 mi SSW 4.6 mph - N/A   Clear
7:15 PM 72.7 °F 61.9 °F 69% 29.93 in 10.0 mi SSW 3.5 mph - N/A   Clear
7:35 PM 71.1 °F 61.7 °F 72% 29.94 in 10.0 mi Calm Calm - N/A   Clear
7:55 PM 69.4 °F 61.7 °F 76% 29.94 in 10.0 mi SSW 3.5 mph - N/A   Clear
8:15 PM 68.0 °F 61.5 °F 80% 29.94 in 10.0 mi SSW 3.5 mph - N/A   Clear
8:35 PM 68.4 °F 62.1 °F 80% 29.95 in 10.0 mi Calm Calm - N/A   Clear
8:55 PM 66.9 °F 61.7 °F 83% 29.96 in 10.0 mi Calm Calm - N/A   Clear
9:15 PM 66.6 °F 60.8 °F 82% 29.96 in 10.0 mi Calm Calm - N/A   Clear
9:35 PM 65.3 °F 61.3 °F 87% 29.97 in 10.0 mi Calm Calm - N/A   Clear
9:55 PM 65.1 °F 61.2 °F 87% 29.97 in 10.0 mi SW 3.5 mph - N/A   Clear
10:15 PM 65.3 °F 60.1 °F 83% 29.98 in 10.0 mi Calm Calm - N/A   Clear
10:35 PM 67.6 °F 59.2 °F 74% 29.98 in 10.0 mi WSW 6.9 mph - N/A   Clear
10:55 PM 68.4 °F 57.9 °F 69% 29.98 in 10.0 mi West 8.1 mph - N/A   Clear
11:15 PM 67.6 °F 57.2 °F 69% 29.99 in 10.0 mi West 6.9 mph - N/A   Clear
11:35 PM 66.7 °F 56.8 °F 70% 29.99 in 10.0 mi West 4.6 mph - N/A   Clear
11:55 PM 65.8 °F 56.7 °F 72% 30.00 in 10.0 mi West 6.9 mph - N/A   Clear